EW8784 Weather Reports


Display with metric or nautical units.
time (UTC)temp
F
wind
direction
speed
MPH
gust
MPH
rain 1hr
in
rain 24hr
in
rain mn
in
humidity
%
barometer
mb
20181120151503 49 333 0.0 0.0 0.00 0.00 0.00 85 1022.8
20181120151004 49 333 0.0 0.0 0.00 0.00 0.00 85 1022.7
20181120150518 49 333 0.0 0.0 0.00 0.00 0.00 85 1022.5
20181120150024 49 333 0.0 0.0 0.00 0.00 0.00 85 1022.4
20181120145503 49 333 0.0 0.0 0.00 0.00 0.00 85 1022.5
20181120145017 48 333 0.0 0.0 0.00 0.00 0.00 86 1022.6
20181120144505 48 333 0.0 0.0 0.00 0.00 0.00 85 1022.7
20181120144006 48 333 0.0 0.0 0.00 0.00 0.00 85 1022.6
20181120143520 48 333 0.0 0.0 0.00 0.00 0.00 85 1022.6
20181120143020 49 333 0.0 0.0 0.00 0.00 0.00 85 1022.6
20181120142520 49 333 0.0 0.0 0.00 0.00 0.00 84 1022.5
20181120142008 49 333 0.0 0.0 0.00 0.00 0.00 84 1022.6
20181120141503 49 333 0.0 0.0 0.00 0.00 0.00 84 1022.5
20181120141006 49 333 0.0 0.0 0.00 0.00 0.00 83 1022.4
20181120140519 49 333 0.0 0.0 0.00 0.00 0.00 83 1022.4
20181120140007 49 333 0.0 0.0 0.00 0.00 0.00 83 1022.4
20181120135506 50 333 0.0 0.0 0.00 0.00 0.00 83 1022.2
20181120135008 50 333 0.0 0.0 0.00 0.00 0.00 83 1022.2
20181120134504 50 333 0.0 0.0 0.00 0.00 0.00 84 1022.2
20181120134017 49 333 0.0 0.0 0.00 0.00 0.00 84 1022.2
20181120133517 49 333 0.0 0.0 0.00 0.00 0.00 84 1022.2
20181120133021 49 333 0.0 0.0 0.00 0.00 0.00 84 1022.2
20181120132503 49 333 0.0 0.0 0.00 0.00 0.00 85 1022.2
20181120132005 49 333 0.0 0.0 0.00 0.00 0.00 84 1022.1
20181120131518 49 333 0.0 0.0 0.00 0.00 0.00 84 1021.9
20181120131018 49 333 0.0 0.0 0.00 0.00 0.00 84 1022.0
20181120130506 49 333 0.0 0.0 0.00 0.00 0.00 84 1021.9
20181120130019 49 333 0.0 0.0 0.00 0.00 0.00 85 1022.0
20181120125517 48 333 0.0 0.0 0.00 0.00 0.00 85 1021.9
20181120125005 49 333 0.0 0.0 0.00 0.00 0.00 85 1021.9
20181120124507 49 333 0.0 0.0 0.00 0.00 0.00 83 1021.9
20181120124008 50 333 0.0 0.0 0.00 0.00 0.00 83 1021.9
20181120123504 50 333 0.0 0.0 0.00 0.00 0.00 83 1022.0
20181120123023 50 333 0.0 0.0 0.00 0.00 0.00 83 1021.9
20181120122516 50 333 0.0 0.0 0.00 0.00 0.00 83 1021.8
20181120122022 50 333 0.0 0.0 0.00 0.00 0.00 82 1021.8
20181120121504 50 333 0.0 0.0 0.00 0.00 0.00 81 1022.0
20181120121005 51 4 0.0 0.0 0.00 0.01 0.00 81 1022.1
20181120120507 51 4 0.0 0.0 0.00 0.01 0.00 80 1022.0
20181120120020 51 4 0.0 0.0 0.00 0.01 0.00 80 1022.0
20181120115518 51 4 0.0 0.0 0.00 0.01 0.00 80 1021.9
20181120115018 51 4 0.0 0.0 0.00 0.01 0.00 80 1021.9
20181120114506 51 4 0.0 0.0 0.00 0.01 0.00 79 1021.8
20181120114007 52 4 0.0 0.0 0.00 0.01 0.00 79 1021.8
20181120113521 52 4 0.0 0.0 0.00 0.01 0.00 79 1021.9
20181120113049 52 4 0.0 0.0 0.00 0.01 0.00 78 1021.8
20181120112504 52 4 0.0 0.0 0.00 0.01 0.00 78 1021.8
20181120112006 52 4 0.0 0.0 0.00 0.01 0.00 78 1021.7
20181120111501 52 4 0.0 0.0 0.00 0.01 0.00 78 1021.5
20181120111020 53 4 0.0 0.0 0.00 0.01 0.00 78 1021.5
20181120110501 52 4 0.0 0.0 0.00 0.02 0.00 78 1021.4
20181120110016 52 4 0.0 0.0 0.00 0.02 0.00 78 1021.4
20181120105520 52 4 0.0 0.0 0.00 0.02 0.00 78 1021.4
20181120105020 52 4 0.0 0.0 0.00 0.02 0.00 78 1021.3
20181120104514 52 4 0.0 0.0 0.00 0.02 0.00 78 1021.1
20181120104020 52 4 0.0 0.0 0.00 0.02 0.00 78 1021.0
20181120103514 52 4 0.0 0.0 0.00 0.02 0.00 78 1021.0
20181120103003 53 32 1.0 2.0 0.00 0.03 0.00 76 1020.9
20181120102515 53 1 0.0 0.0 0.00 0.03 0.00 76 1020.9
20181120102003 53 1 0.0 0.0 0.00 0.04 0.00 76 1020.9
20181120101517 53 1 0.0 0.0 0.00 0.04 0.00 76 1020.7
20181120101016 53 1 0.0 0.0 0.00 0.04 0.00 76 1020.6
20181120100504 54 1 0.0 0.0 0.00 0.04 0.00 76 1020.6
20181120100018 54 1 0.0 0.0 0.00 0.04 0.00 75 1020.5
20181120095503 54 1 0.0 0.0 0.00 0.04 0.00 75 1020.4
20181120095017 54 1 0.0 0.0 0.00 0.04 0.00 76 1020.3
20181120094517 53 1 0.0 0.0 0.00 0.04 0.00 76 1020.2
20181120094005 53 1 0.0 0.0 0.00 0.04 0.00 76 1020.2
20181120093519 53 1 0.0 0.0 0.00 0.04 0.00 76 1020.0
20181120093019 54 329 0.0 0.0 0.00 0.04 0.00 75 1020.0
20181120092518 54 17 0.0 0.0 0.00 0.04 0.00 75 1020.0
20181120092006 54 17 0.0 0.0 0.00 0.04 0.00 73 1020.0
20181120091501 54 17 0.0 0.0 0.00 0.04 0.00 72 1019.9
20181120091015 54 17 0.0 0.0 0.00 0.04 0.00 72 1019.7
20181120090504 55 17 0.0 0.0 0.00 0.04 0.00 71 1019.7
20181120090023 55 17 0.0 0.0 0.00 0.04 0.00 71 1019.7
20181120085502 55 17 0.0 0.0 0.00 0.04 0.00 70 1019.6
20181120085003 55 17 0.0 0.0 0.00 0.04 0.00 70 1019.5
20181120084516 55 17 0.0 0.0 0.00 0.04 0.00 69 1019.5
20181120084017 56 17 0.0 0.0 0.00 0.04 0.00 68 1019.5
20181120083517 56 17 0.0 0.0 0.00 0.04 0.00 67 1019.5
20181120083005 56 17 0.0 0.0 0.00 0.05 0.00 67 1019.4
20181120082517 56 17 0.0 0.0 0.00 0.05 0.00 66 1019.3
20181120082006 57 17 0.0 0.0 0.00 0.05 0.00 63 1019.2
20181120081502 57 17 0.0 0.0 0.00 0.05 0.00 63 1019.2
20181120081015 56 17 0.0 0.0 0.00 0.05 0.00 63 1019.1
20181120080515 56 17 0.0 0.0 0.00 0.05 0.00 63 1019.0
20181120080023 56 31 0.0 0.0 0.00 0.05 0.00 63 1018.9
20181120075507 56 31 1.0 2.0 0.00 0.05 0.00 62 1018.7
20181120075003 56 28 1.0 2.0 0.00 0.05 0.00 62 1018.6
20181120074516 56 335 1.0 2.0 0.00 0.05 0.00 62 1018.5
20181120074004 56 20 0.0 1.0 0.00 0.06 0.00 62 1018.4
20181120073517 57 38 2.0 4.0 0.00 0.06 0.00 61 1018.4
20181120073017 57 7 1.0 2.0 0.00 0.06 0.00 61 1018.3
20181120072518 57 59 3.0 5.0 0.00 0.06 0.00 61 1018.3
20181120072017 57 359 0.0 1.0 0.00 0.06 0.00 61 1018.3
20181120071517 57 31 4.0 4.0 0.00 0.07 0.00 60 1018.2
20181120071006 57 60 6.0 9.0 0.00 0.07 0.00 60 1018.2
20181120070501 57 39 2.0 5.0 0.00 0.07 0.00 60 1018.2
20181120070021 57 76 2.0 7.0 0.00 0.07 0.00 60 1018.2
20181120065507 57 41 3.0 5.0 0.00 0.07 0.00 60 1018.1
20181120065002 57 49 4.0 6.0 0.00 0.07 0.00 60 1018.1
20181120064515 57 30 5.0 8.0 0.00 0.07 0.00 60 1018.0
20181120064003 58 83 5.0 7.0 0.00 0.07 0.00 60 1018.0
20181120063505 58 23 5.0 9.0 0.00 0.07 0.00 60 1017.8
20181120063001 58 17 3.0 7.0 0.00 0.07 0.00 59 1017.9
20181120062520 58 42 5.0 8.0 0.00 0.07 0.00 59 1017.8
20181120062003 58 52 3.0 6.0 0.00 0.07 0.00 60 1017.6
20181120061504 58 44 6.0 8.0 0.00 0.07 0.00 59 1017.6
20181120061006 58 24 6.0 11.0 0.00 0.07 0.00 58 1017.6
20181120060519 59 333 4.0 8.0 0.00 0.07 0.00 57 1017.5
20181120060007 59 51 5.0 6.0 0.00 0.07 0.00 59 1017.4
20181120055506 59 63 5.0 9.0 0.00 0.07 0.00 59 1017.4
20181120055002 59 32 5.0 9.0 0.00 0.07 0.00 58 1017.3
20181120054516 60 23 5.0 9.0 0.00 0.07 0.00 57 1017.2
20181120054015 60 44 5.0 8.0 0.00 0.07 0.00 57 1017.2
20181120053516 59 20 6.0 9.0 0.00 0.07 0.00 57 1017.1
20181120053015 59 60 3.0 8.0 0.00 0.07 0.00 58 1017.1
20181120052504 59 49 6.0 9.0 0.00 0.07 0.00 57 1017.1
20181120052005 59 59 4.0 6.0 0.00 0.07 0.00 59 1017.2
20181120051518 59 79 3.0 6.0 0.00 0.07 0.00 59 1017.2
20181120051018 59 75 5.0 8.0 0.00 0.07 0.00 58 1017.2
20181120050501 59 31 7.0 10.0 0.00 0.07 0.00 59 1017.2
20181120050003 58 32 5.0 9.0 0.00 0.07 0.00 61 1017.2
20181120045503 58 73 4.0 5.0 0.00 0.07 0.00 60 1017.2
20181120045004 58 82 4.0 9.0 0.00 0.07 0.00 61 1017.2
20181120044517 58 60 7.0 10.0 0.00 0.07 0.00 61 1017.1
20181120044018 58 45 5.0 8.0 0.00 0.07 0.00 61 1017.1
20181120043506 58 58 7.0 11.0 0.00 0.07 0.00 60 1017.2
20181120043019 58 7 5.0 7.0 0.00 0.07 0.00 60 1017.2
20181120042518 58 18 6.0 9.0 0.00 0.07 0.00 60 1017.1
20181120042018 58 75 6.0 10.0 0.00 0.07 0.00 60 1017.1
20181120041507 58 32 3.0 6.0 0.00 0.07 0.00 60 1017.1
20181120041003 58 59 7.0 11.0 0.00 0.07 0.00 60 1017.2
20181120040505 58 38 7.0 11.0 0.00 0.07 0.00 60 1017.2
20181120040006 59 69 4.0 7.0 0.00 0.07 0.00 59 1017.2
20181120035506 59 44 7.0 10.0 0.00 0.07 0.00 58 1017.3
20181120035020 59 76 4.0 12.0 0.00 0.07 0.00 58 1017.3
20181120034501 59 60 5.0 10.0 0.00 0.07 0.00 57 1017.3
20181120034003 60 56 6.0 11.0 0.00 0.07 0.00 57 1017.3
20181120033504 59 49 6.0 10.0 0.00 0.07 0.00 59 1017.3
20181120033018 59 31 5.0 10.0 0.00 0.07 0.00 58 1017.4
20181120032505 59 45 6.0 9.0 0.00 0.07 0.00 58 1017.4
20181120032007 59 94 4.0 8.0 0.00 0.07 0.00 57 1017.5
20181120031502 59 65 8.0 11.0 0.00 0.07 0.00 57 1017.5
20181120031016 59 49 6.0 12.0 0.00 0.07 0.00 58 1017.6
20181120030516 59 55 8.0 12.0 0.00 0.07 0.00 59 1017.5
20181120030004 59 44 6.0 11.0 0.00 0.07 0.00 60 1017.6
20181120025503 58 48 8.0 14.0 0.00 0.07 0.00 61 1017.6
20181120025004 58 27 9.0 14.0 0.00 0.07 0.00 61 1017.7
20181120024506 58 191 4.0 10.0 0.00 0.07 0.00 61 1017.6
20181120024002 58 45 4.0 9.0 0.00 0.07 0.00 62 1017.6
20181120023504 58 135 5.0 10.0 0.00 0.07 0.00 63 1017.7
20181120023005 57 94 6.0 10.0 0.00 0.07 0.00 63 1017.8
20181120022540 58 41 10.0 16.0 0.00 0.07 0.00 61 1017.9
20181120022007 58 24 7.0 10.0 0.00 0.07 0.00 61 1018.0
20181120021501 58 18 7.0 12.0 0.00 0.07 0.00 61 1018.0
20181120021021 58 318 6.0 10.0 0.00 0.07 0.00 62 1018.1
20181120020502 58 27 7.0 11.0 0.00 0.07 0.00 61 1018.1
20181120020022 58 34 6.0 11.0 0.00 0.07 0.00 62 1018.1
20181120015501 57 42 10.0 14.0 0.00 0.07 0.00 62 1018.1
20181120015003 57 28 8.0 13.0 0.00 0.07 0.00 62 1018.2
20181120014517 57 46 9.0 16.0 0.00 0.07 0.00 62 1018.2
20181120014017 57 37 9.0 14.0 0.00 0.07 0.00 62 1018.2
20181120013504 57 53 6.0 12.0 0.00 0.07 0.00 63 1018.2
20181120013006 57 51 6.0 12.0 0.00 0.07 0.00 63 1018.1
20181120012507 56 63 8.0 12.0 0.00 0.07 0.00 63 1018.1
20181120012020 56 23 8.0 12.0 0.00 0.07 0.00 64 1018.2
20181120011520 56 30 4.0 7.0 0.00 0.07 0.00 64 1018.3
20181120011001 56 75 7.0 11.0 0.00 0.07 0.00 63 1018.4
20181120010503 56 14 8.0 15.0 0.00 0.07 0.00 62 1018.4
20181120010004 56 15 7.0 12.0 0.00 0.07 0.00 63 1018.5
20181120005516 56 42 5.0 9.0 0.00 0.07 0.00 63 1018.5
20181120005003 56 32 6.0 14.0 0.00 0.07 0.00 61 1018.5
20181120004504 56 6 8.0 13.0 0.00 0.07 0.00 60 1018.5
20181120004006 57 72 5.0 9.0 0.00 0.07 0.00 60 1018.5
20181120003525 56 4 7.0 12.0 0.00 0.07 0.00 61 1018.4
20181120003002 56 28 7.0 10.0 0.00 0.07 0.00 61 1018.4
20181120002516 56 66 7.0 10.0 0.00 0.07 0.00 60 1018.4
20181120002004 57 58 7.0 13.0 0.00 0.07 0.00 57 1018.6
20181120001505 57 63 9.0 13.0 0.00 0.07 0.00 57 1018.5
20181120001007 57 339 10.0 16.0 0.00 0.07 0.00 56 1018.4
20181120000521 57 357 8.0 16.0 0.00 0.07 0.00 56 1018.4
20181120000020 56 45 8.0 14.0 0.00 0.07 0.00 57 1018.5
20181119235517 56 8 9.0 14.0 0.00 0.07 0.00 60 1018.6
20181119235016 56 30 7.0 11.0 0.00 0.07 0.00 60 1018.6
20181119234516 55 90 8.0 14.0 0.00 0.07 0.00 60 1018.5
20181119234004 55 35 9.0 15.0 0.00 0.07 0.00 60 1018.5
20181119233518 55 49 7.0 14.0 0.00 0.07 0.00 61 1018.4
20181119233006 55 27 7.0 11.0 0.00 0.07 0.00 62 1018.4
20181119232520 55 359 6.0 9.0 0.00 0.07 0.00 64 1018.4
20181119232020 54 24 8.0 13.0 0.00 0.07 0.00 65 1018.4
20181119231502 54 35 6.0 9.0 0.00 0.07 0.00 65 1018.4
20181119231016 54 58 8.0 13.0 0.00 0.07 0.00 67 1018.4
20181119230503 54 72 5.0 10.0 0.00 0.07 0.00 68 1018.3
20181119230005 54 20 7.0 11.0 0.00 0.07 0.00 68 1018.4
20181119225505 53 82 8.0 13.0 0.00 0.07 0.00 68 1018.3
20181119225006 53 34 9.0 14.0 0.00 0.07 0.00 69 1018.3
20181119224502 53 159 4.0 8.0 0.00 0.07 0.00 71 1018.3
20181119224016 53 34 4.0 8.0 0.00 0.07 0.00 72 1018.4
20181119223504 53 20 7.0 11.0 0.00 0.07 0.00 73 1018.3
20181119223018 53 27 7.0 12.0 0.00 0.07 0.00 75 1018.2
20181119222506 53 11 7.0 11.0 0.00 0.07 0.00 75 1018.1
20181119222001 53 42 7.0 15.0 0.00 0.07 0.00 76 1018.0
20181119221521 53 83 7.0 13.0 0.00 0.07 0.00 76 1017.8
20181119221003 53 21 7.0 10.0 0.00 0.07 0.00 76 1017.7
20181119220517 52 31 4.0 7.0 0.00 0.07 0.00 74 1017.7
20181119220005 52 91 8.0 12.0 0.00 0.07 0.00 73 1017.6
20181119215522 52 32 8.0 13.0 0.00 0.07 0.00 73 1017.4
20181119215016 52 21 6.0 8.0 0.00 0.07 0.00 75 1017.3
20181119214504 52 1 7.0 10.0 0.00 0.07 0.00 75 1017.2
20181119214006 52 7 7.0 10.0 0.00 0.07 0.00 75 1017.3
20181119213508 52 0 7.0 11.0 0.00 0.07 0.00 76 1017.3
20181119213003 52 24 5.0 8.0 0.00 0.07 0.00 76 1017.1
20181119212517 52 3 7.0 10.0 0.00 0.07 0.00 76 1016.9
20181119212004 52 8 7.0 10.0 0.00 0.07 0.00 75 1016.9
20181119211518 52 32 7.0 11.0 0.00 0.07 0.00 74 1016.8
20181119211005 52 58 6.0 11.0 0.00 0.07 0.00 73 1016.7
20181119210519 52 59 8.0 13.0 0.00 0.07 0.00 71 1016.7
20181119210019 52 28 4.0 6.0 0.00 0.07 0.00 69 1016.7
20181119205504 53 31 7.0 11.0 0.00 0.07 0.00 68 1016.6
20181119205006 53 11 5.0 9.0 0.00 0.07 0.00 67 1016.5
20181119204520 53 18 7.0 10.0 0.00 0.07 0.00 65 1016.4
20181119204002 53 35 4.0 6.0 0.00 0.07 0.00 64 1016.4
20181119203516 53 349 7.0 10.0 0.00 0.07 0.00 64 1016.3
20181119203004 53 56 9.0 15.0 0.00 0.07 0.00 64 1016.1
20181119202517 53 25 7.0 11.0 0.00 0.07 0.00 65 1016.1
20181119202017 52 48 4.0 7.0 0.00 0.07 0.00 65 1016.0
20181119201517 53 21 6.0 7.0 0.00 0.07 0.00 65 1015.9
20181119201005 52 1 5.0 8.0 0.00 0.07 0.00 65 1015.9
20181119200519 53 28 5.0 7.0 0.00 0.07 0.00 65 1015.9
20181119200019 53 13 4.0 7.0 0.00 0.07 0.00 65 1015.7
20181119195517 52 118 4.0 7.0 0.00 0.07 0.00 65 1015.6
20181119195005 52 39 6.0 8.0 0.00 0.07 0.00 65 1015.6
20181119194519 53 15 5.0 6.0 0.00 0.07 0.00 65 1015.4
20181119194007 53 52 7.0 9.0 0.00 0.07 0.00 65 1015.3
20181119193502 53 0 5.0 7.0 0.00 0.07 0.00 64 1015.2
20181119193004 53 86 5.0 9.0 0.00 0.07 0.00 64 1015.1
20181119192506 53 41 7.0 11.0 0.00 0.07 0.00 64 1014.9
20181119192019 53 60 7.0 10.0 0.00 0.07 0.00 63 1014.8
20181119191507 53 48 5.0 8.0 0.00 0.07 0.00 64 1014.8
20181119191002 53 18 5.0 7.0 0.00 0.07 0.00 64 1014.6
20181119190505 53 44 5.0 7.0 0.00 0.07 0.00 63 1014.6
20181119190018 54 21 5.0 7.0 0.00 0.07 0.00 63 1014.5
20181119185504 54 27 7.0 11.0 0.00 0.07 0.00 63 1014.4
20181119185017 54 359 7.0 10.0 0.00 0.07 0.00 63 1014.4
20181119184517 54 8 8.0 13.0 0.00 0.07 0.00 63 1014.4
20181119184017 54 347 7.0 13.0 0.00 0.07 0.00 64 1014.4
20181119183517 54 77 9.0 12.0 0.00 0.07 0.00 64 1014.4
20181119183006 54 10 10.0 15.0 0.00 0.07 0.00 64 1014.4
20181119182501 54 346 8.0 13.0 0.00 0.07 0.00 64 1014.4
20181119182004 54 44 7.0 14.0 0.00 0.07 0.00 64 1014.4
20181119181506 54 15 8.0 13.0 0.00 0.07 0.00 64 1014.3
20181119181019 54 27 6.0 9.0 0.00 0.07 0.00 64 1014.2
20181119180508 54 359 7.0 11.0 0.00 0.07 0.00 64 1014.1
20181119180021 54 20 7.0 9.0 0.00 0.07 0.00 66 1014.2
20181119175518 54 335 8.0 12.0 0.00 0.07 0.00 66 1014.1
20181119175007 55 4 7.0 10.0 0.00 0.07 0.00 67 1014.0
20181119174502 55 338 8.0 12.0 0.00 0.07 0.00 68 1014.0
20181119174004 55 8 8.0 12.0 0.00 0.07 0.00 69 1014.0
20181119173506 55 21 9.0 13.0 0.00 0.07 0.00 69 1014.1
20181119173008 55 53 7.0 10.0 0.00 0.07 0.00 70 1014.0
20181119172515 55 35 7.0 10.0 0.00 0.07 0.00 70 1014.0
20181119172010 55 41 7.0 10.0 0.00 0.07 0.00 71 1013.9
20181119171504 55 359 6.0 9.0 0.00 0.07 0.00 71 1013.9
20181119171018 55 325 6.0 9.0 0.00 0.07 0.00 71 1013.9
20181119170505 55 350 5.0 9.0 0.00 0.07 0.00 71 1014.0
20181119170007 55 14 4.0 6.0 0.00 0.07 0.00 71 1013.9
20181119165507 55 48 5.0 8.0 0.00 0.07 0.00 71 1014.0
20181119165020 55 332 4.0 6.0 0.00 0.07 0.00 71 1014.1
20181119164520 55 35 6.0 8.0 0.00 0.07 0.00 71 1014.1
20181119164002 55 10 5.0 8.0 0.00 0.07 0.00 72 1014.0
20181119163516 55 18 6.0 9.0 0.00 0.07 0.00 71 1014.0
20181119163016 55 60 5.0 9.0 0.00 0.07 0.00 71 1014.0
20181119162505 55 42 8.0 13.0 0.00 0.07 0.00 71 1014.0
20181119162018 55 18 7.0 12.0 0.00 0.07 0.00 72 1014.0
20181119161506 55 39 7.0 11.0 0.00 0.07 0.00 73 1014.0
20181119161008 55 14 8.0 13.0 0.00 0.07 0.00 74 1013.9
20181119160521 55 23 5.0 7.0 0.00 0.07 0.00 75 1013.9
20181119160004 55 46 6.0 9.0 0.00 0.07 0.00 75 1014.0
20181119155521 55 27 6.0 9.0 0.00 0.07 0.00 76 1014.1
20181119155004 55 18 8.0 11.0 0.00 0.07 0.00 76 1014.0
20181119154506 55 27 7.0 11.0 0.00 0.07 0.00 76 1014.1
20181119154019 55 20 4.0 8.0 0.00 0.07 0.00 77 1014.2
20181119153519 55 83 5.0 9.0 0.00 0.07 0.00 78 1014.2
20181119153008 55 10 4.0 9.0 0.00 0.07 0.00 80 1014.2
20181119152504 55 37 4.0 7.0 0.00 0.07 0.00 80 1014.1
20181119152017 55 359 6.0 8.0 0.00 0.07 0.00 81 1014.3